Location: Makanda
(37.6176°N, 89.2090°W)
Time: 08:08:03
(UTC+00:00)

Cosmos 1346 Rocket - Pass Details

Date: 23 September 2019
Orbit: 520 x 559 km, 81.2° (Epoch: 13 October)

Event Time Altitude Azimuth Distance (km) Brightness Sun altitude
Rises 09:32:51 0° 354° (N) 2,753 6.6 -26.4°
Reaches altitude 10° 09:35:04 10° 358° (N) 1,853 5.7 -26.0°
Maximum altitude 09:39:07 64° 80° (E) 622 3.2 -25.3°
Enters shadow 09:39:08 63° 82° (E) 623 3.2 -25.3°
